| time (UTC) | temp F | wind direction | speed knots | gust knots | rain 1hr in | rain 24hr in | rain mn in | humidity % | barometer mb |
| 20260507075903 | 55 | 27 | 1.7 | 1.7 | 0.00 | 0.00 | 0.00 | 37 | 815.6 |
| 20260507075359 | 56 | 57 | 0.9 | 0.9 | 0.00 | 0.00 | 0.00 | 37 | 815.6 |
| 20260507074855 | 55 | 57 | 0.9 | 1.7 | 0.00 | 0.00 | 0.00 | 36 | 815.5 |
| 20260507074353 | 56 | 327 | 1.7 | 1.7 | 0.00 | 0.00 | 0.00 | 32 | 815.5 |
| 20260507073850 | 56 | 345 | 1.7 | 1.7 | 0.00 | 0.00 | 0.00 | 37 | 815.2 |
| 20260507073346 | 57 | 12 | 0.9 | 1.7 | 0.00 | 0.00 | 0.00 | 33 | 815.5 |
| 20260507072844 | 56 | 358 | 2.6 | 2.6 | 0.00 | 0.00 | 0.00 | 33 | 815.1 |
| 20260507072341 | 57 | 322 | 1.7 | 1.7 | 0.00 | 0.00 | 0.00 | 35 | 815.2 |
| 20260507071839 | 57 | 344 | 1.7 | 1.7 | 0.00 | 0.00 | 0.00 | 31 | 815.4 |
| 20260507071336 | 57 | 344 | 1.7 | 1.7 | 0.00 | 0.00 | 0.00 | 30 | 815.4 |
| 20260507070832 | 56 | 340 | 2.6 | 2.6 | 0.00 | 0.00 | 0.00 | 31 | 815.4 |
| 20260507070329 | 57 | 352 | 1.7 | 1.7 | 0.00 | 0.00 | 0.00 | 31 | 815.6 |
| 20260507065826 | 56 | 311 | 2.6 | 2.6 | 0.00 | 0.00 | 0.00 | 33 | 815.4 |
| 20260507065322 | 57 | 309 | 1.7 | 1.7 | 0.00 | 0.00 | 0.00 | 30 | 815.4 |
| 20260507064820 | 56 | 308 | 0.9 | 1.7 | 0.00 | 0.00 | 0.00 | 29 | 815.6 |
| 20260507064318 | 56 | 329 | 1.7 | 1.7 | 0.00 | 0.00 | 0.00 | 33 | 815.6 |
| 20260507063816 | 57 | 4 | 0.9 | 0.9 | 0.00 | 0.00 | 0.00 | 32 | 815.4 |
| 20260507063312 | 56 | 343 | 2.6 | 2.6 | 0.00 | 0.00 | 0.00 | 33 | 815.5 |
| 20260507062809 | 58 | 331 | 0.9 | 0.9 | 0.00 | 0.00 | 0.00 | 34 | 815.5 |
| 20260507062306 | 58 | 331 | 0.9 | 0.9 | 0.00 | 0.00 | 0.00 | 31 | 815.7 |
| 20260507061804 | 58 | 308 | 1.7 | 1.7 | 0.00 | 0.00 | 0.00 | 31 | 815.8 |
| 20260507061302 | 58 | 288 | 1.7 | 1.7 | 0.00 | 0.00 | 0.00 | 28 | 816.0 |
| 20260507060800 | 58 | 291 | 2.6 | 2.6 | 0.00 | 0.00 | 0.00 | 28 | 816.0 |
| 20260507060256 | 58 | 307 | 1.7 | 1.7 | 0.00 | 0.00 | 0.00 | 28 | 815.7 |
| 20260507055753 | 58 | 307 | 0.9 | 1.7 | 0.00 | 0.00 | 0.00 | 29 | 815.7 |
| 20260507055248 | 56 | 340 | 1.7 | 1.7 | 0.00 | 0.00 | 0.00 | 32 | 815.7 |
| 20260507054745 | 58 | 21 | 0.9 | 1.7 | 0.00 | 0.00 | 0.00 | 28 | 816.1 |
| 20260507054241 | 58 | 8 | 1.7 | 1.7 | 0.00 | 0.00 | 0.00 | 29 | 816.0 |
| 20260507053739 | 58 | 1 | 1.7 | 1.7 | 0.00 | 0.00 | 0.00 | 31 | 816.1 |
| 20260507053236 | 59 | 0 | 1.7 | 1.7 | 0.00 | 0.00 | 0.00 | 29 | 816.1 |
| 20260507052735 | 58 | 3 | 1.7 | 1.7 | 0.00 | 0.00 | 0.00 | 31 | 816.4 |
| 20260507052231 | 58 | 359 | 1.7 | 1.7 | 0.00 | 0.00 | 0.00 | 33 | 816.3 |
| 20260507051729 | 59 | 347 | 1.7 | 1.7 | 0.00 | 0.00 | 0.00 | 31 | 816.3 |
| 20260507051226 | 57 | 338 | 2.6 | 2.6 | 0.00 | 0.00 | 0.00 | 30 | 816.2 |
| 20260507050722 | 56 | 299 | 2.6 | 2.6 | 0.00 | 0.00 | 0.00 | 35 | 816.3 |
| 20260507050220 | 59 | 355 | 1.7 | 1.7 | 0.00 | 0.00 | 0.00 | 32 | 816.3 |
| 20260507045716 | 59 | 30 | 2.6 | 2.6 | 0.00 | 0.00 | 0.00 | 27 | 816.5 |
| 20260507045212 | 57 | 37 | 1.7 | 1.7 | 0.00 | 0.00 | 0.00 | 31 | 816.3 |
| 20260507044710 | 57 | 358 | 2.6 | 2.6 | 0.00 | 0.00 | 0.00 | 33 | 816.4 |
| 20260507044206 | 59 | 4 | 2.6 | 2.6 | 0.00 | 0.00 | 0.00 | 33 | 816.4 |
| 20260507043702 | 59 | 34 | 2.6 | 2.6 | 0.00 | 0.00 | 0.00 | 30 | 816.4 |
| 20260507043159 | 60 | 297 | 0.9 | 1.7 | 0.00 | 0.00 | 0.00 | 29 | 816.4 |
| 20260507042656 | 59 | 318 | 1.7 | 1.7 | 0.00 | 0.00 | 0.00 | 30 | 816.6 |
| 20260507042150 | 57 | 331 | 2.6 | 2.6 | 0.00 | 0.00 | 0.00 | 34 | 816.6 |
| 20260507041648 | 58 | 342 | 0.9 | 0.9 | 0.00 | 0.00 | 0.00 | 33 | 816.5 |
| 20260507041144 | 59 | 343 | 1.7 | 1.7 | 0.00 | 0.00 | 0.00 | 31 | 816.6 |
| 20260507040642 | 59 | 345 | 1.7 | 1.7 | 0.00 | 0.00 | 0.00 | 32 | 816.6 |
| 20260507040138 | 59 | 344 | 1.7 | 1.7 | 0.00 | 0.00 | 0.00 | 30 | 816.6 |
| 20260507035634 | 59 | 321 | 0.0 | 0.0 | 0.00 | 0.00 | 0.00 | 29 | 816.4 |
| 20260507035130 | 59 | 321 | 0.0 | 0.0 | 0.00 | 0.00 | 0.00 | 30 | 816.5 |
| 20260507034627 | 59 | 321 | 0.9 | 1.7 | 0.00 | 0.00 | 0.00 | 31 | 816.3 |
| 20260507034125 | 60 | 316 | 0.9 | 1.7 | 0.00 | 0.00 | 0.00 | 28 | 816.5 |
| 20260507033623 | 60 | 267 | 0.9 | 0.9 | 0.00 | 0.00 | 0.00 | 30 | 816.5 |
| 20260507033119 | 60 | 4 | 0.9 | 0.9 | 0.00 | 0.00 | 0.00 | 28 | 816.6 |
| 20260507032617 | 60 | 354 | 1.7 | 1.7 | 0.00 | 0.00 | 0.00 | 27 | 816.5 |
| 20260507032113 | 61 | 335 | 1.7 | 1.7 | 0.00 | 0.00 | 0.00 | 27 | 816.5 |
| 20260507031610 | 61 | 319 | 1.7 | 1.7 | 0.00 | 0.00 | 0.00 | 27 | 816.5 |
| 20260507031106 | 64 | 351 | 2.6 | 2.6 | 0.00 | 0.00 | 0.00 | 21 | 816.4 |
| 20260507030603 | 62 | 11 | 3.5 | 4.3 | 0.00 | 0.00 | 0.00 | 23 | 816.4 |
| 20260507030101 | 62 | 1 | 2.6 | 2.6 | 0.00 | 0.00 | 0.00 | 23 | 816.4 |
| 20260507025558 | 64 | 292 | 0.9 | 0.9 | 0.00 | 0.00 | 0.00 | 22 | 816.2 |
| 20260507025055 | 64 | 342 | 3.5 | 5.2 | 0.00 | 0.00 | 0.00 | 21 | 816.4 |
| 20260507024553 | 64 | 327 | 2.6 | 2.6 | 0.00 | 0.00 | 0.00 | 20 | 816.3 |
| 20260507024049 | 64 | 290 | 1.7 | 1.7 | 0.00 | 0.00 | 0.00 | 21 | 816.4 |
| 20260507023545 | 64 | 293 | 2.6 | 2.6 | 0.00 | 0.00 | 0.00 | 20 | 816.4 |
| 20260507023043 | 64 | 301 | 1.7 | 1.7 | 0.00 | 0.00 | 0.00 | 24 | 816.5 |
| 20260507022539 | 63 | 328 | 3.5 | 5.2 | 0.00 | 0.00 | 0.00 | 22 | 816.6 |
| 20260507022035 | 61 | 7 | 1.7 | 1.7 | 0.00 | 0.00 | 0.00 | 28 | 816.7 |
| 20260507021531 | 61 | 334 | 1.7 | 1.7 | 0.00 | 0.00 | 0.00 | 29 | 816.5 |
| 20260507021028 | 62 | 4 | 2.6 | 2.6 | 0.00 | 0.00 | 0.00 | 26 | 816.6 |
| 20260507020525 | 62 | 342 | 2.6 | 4.3 | 0.00 | 0.00 | 0.00 | 27 | 816.4 |
| 20260507020022 | 62 | 321 | 1.7 | 1.7 | 0.00 | 0.00 | 0.00 | 26 | 816.6 |
| 20260507015520 | 63 | 322 | 0.9 | 0.9 | 0.00 | 0.00 | 0.00 | 24 | 816.5 |
| 20260507015017 | 63 | 328 | 2.6 | 2.6 | 0.00 | 0.00 | 0.00 | 24 | 816.5 |
| 20260507014514 | 64 | 314 | 1.7 | 1.7 | 0.00 | 0.00 | 0.00 | 24 | 816.4 |
| 20260507014010 | 63 | 335 | 2.6 | 2.6 | 0.00 | 0.00 | 0.00 | 25 | 816.4 |
| 20260507013506 | 64 | 326 | 0.9 | 0.9 | 0.00 | 0.00 | 0.00 | 25 | 816.4 |
| 20260507013004 | 65 | 321 | 2.6 | 2.6 | 0.00 | 0.00 | 0.00 | 22 | 816.2 |
| 20260507012501 | 66 | 6 | 2.6 | 2.6 | 0.00 | 0.00 | 0.00 | 22 | 816.3 |
| 20260507011957 | 65 | 47 | 2.6 | 2.6 | 0.00 | 0.00 | 0.00 | 23 | 816.2 |
| 20260507011454 | 65 | 15 | 2.6 | 2.6 | 0.00 | 0.00 | 0.00 | 24 | 816.2 |
| 20260507010950 | 66 | 354 | 1.7 | 1.7 | 0.00 | 0.00 | 0.00 | 23 | 816.2 |
| 20260507010444 | 66 | 28 | 1.7 | 2.6 | 0.00 | 0.00 | 0.00 | 21 | 816.3 |
| 20260507005942 | 67 | 39 | 2.6 | 2.6 | 0.00 | 0.00 | 0.00 | 21 | 816.3 |
| 20260507005439 | 68 | 19 | 1.7 | 1.7 | 0.00 | 0.00 | 0.00 | 20 | 816.3 |
| 20260507004935 | 68 | 354 | 0.9 | 0.9 | 0.00 | 0.00 | 0.00 | 19 | 816.3 |
| 20260507004432 | 68 | 48 | 2.6 | 2.6 | 0.00 | 0.00 | 0.00 | 19 | 816.1 |
| 20260507003930 | 69 | 18 | 1.7 | 2.6 | 0.00 | 0.00 | 0.00 | 19 | 816.1 |
| 20260507003424 | 69 | 66 | 0.0 | 0.9 | 0.00 | 0.00 | 0.00 | 18 | 816.1 |
| 20260507002920 | 70 | 350 | 1.7 | 1.7 | 0.00 | 0.00 | 0.00 | 17 | 815.8 |
| 20260507002416 | 69 | 62 | 4.3 | 6.1 | 0.00 | 0.00 | 0.00 | 18 | 816.0 |
| 20260507001914 | 68 | 45 | 4.3 | 6.1 | 0.00 | 0.00 | 0.00 | 19 | 816.0 |
| 20260507001410 | 68 | 333 | 1.7 | 1.7 | 0.00 | 0.00 | 0.00 | 21 | 815.8 |
| 20260507000908 | 67 | 100 | 1.7 | 1.7 | 0.00 | 0.00 | 0.00 | 21 | 815.7 |
| 20260507000405 | 67 | 80 | 0.9 | 2.6 | 0.00 | 0.00 | 0.00 | 23 | 815.5 |
| 20260506235859 | 68 | 117 | 1.7 | 1.7 | 0.00 | 0.00 | 0.00 | 23 | 815.4 |
| 20260506235356 | 69 | 63 | 2.6 | 2.6 | 0.00 | 0.00 | 0.00 | 22 | 815.5 |
| 20260506234852 | 69 | 16 | 2.6 | 2.6 | 0.00 | 0.00 | 0.00 | 20 | 815.3 |
| 20260506234350 | 69 | 12 | 8.7 | 11.3 | 0.00 | 0.00 | 0.00 | 22 | 815.4 |
| 20260506233847 | 69 | 96 | 5.2 | 6.1 | 0.00 | 0.00 | 0.00 | 20 | 815.0 |
| 20260506233343 | 69 | 326 | 4.3 | 7.0 | 0.00 | 0.00 | 0.00 | 19 | 815.1 |
| 20260506232840 | 69 | 2 | 4.3 | 6.1 | 0.00 | 0.00 | 0.00 | 19 | 815.2 |
| 20260506232336 | 70 | 10 | 2.6 | 2.6 | 0.00 | 0.00 | 0.00 | 20 | 815.1 |
| 20260506231827 | 70 | 46 | 6.1 | 7.8 | 0.00 | 0.00 | 0.00 | 19 | 814.9 |
| 20260506231324 | 71 | 129 | 0.9 | 1.7 | 0.00 | 0.00 | 0.00 | 20 | 815.0 |
| 20260506230821 | 70 | 6 | 4.3 | 6.1 | 0.00 | 0.00 | 0.00 | 21 | 814.9 |
| 20260506230318 | 70 | 26 | 2.6 | 4.3 | 0.00 | 0.00 | 0.00 | 21 | 814.9 |
| 20260506225814 | 70 | 55 | 7.8 | 13.0 | 0.00 | 0.00 | 0.00 | 21 | 814.9 |
| 20260506225312 | 71 | 31 | 6.1 | 7.8 | 0.00 | 0.00 | 0.00 | 21 | 814.9 |
| 20260506224809 | 70 | 37 | 6.1 | 7.8 | 0.00 | 0.00 | 0.00 | 21 | 814.5 |
| 20260506224306 | 71 | 334 | 6.1 | 11.3 | 0.00 | 0.00 | 0.00 | 20 | 814.4 |
| 20260506223802 | 71 | 25 | 7.8 | 11.3 | 0.00 | 0.00 | 0.00 | 21 | 814.5 |
| 20260506223257 | 71 | 2 | 7.0 | 8.7 | 0.00 | 0.00 | 0.00 | 20 | 814.6 |
| 20260506222754 | 70 | 349 | 6.1 | 7.8 | 0.00 | 0.00 | 0.00 | 20 | 814.4 |
| 20260506222250 | 69 | 12 | 2.6 | 2.6 | 0.00 | 0.00 | 0.00 | 21 | 814.5 |
| 20260506221748 | 69 | 51 | 2.6 | 2.6 | 0.00 | 0.00 | 0.00 | 21 | 814.5 |
| 20260506221246 | 70 | 16 | 3.5 | 4.3 | 0.00 | 0.00 | 0.00 | 21 | 814.5 |
| 20260506220743 | 70 | 32 | 3.5 | 4.3 | 0.00 | 0.00 | 0.00 | 20 | 814.5 |
| 20260506220238 | 70 | 13 | 2.6 | 2.6 | 0.00 | 0.00 | 0.00 | 19 | 814.5 |
| 20260506215735 | 70 | 25 | 4.3 | 6.1 | 0.00 | 0.00 | 0.00 | 17 | 814.4 |
| 20260506215230 | 70 | 343 | 3.5 | 4.3 | 0.00 | 0.00 | 0.00 | 17 | 814.4 |
| 20260506214727 | 70 | 20 | 1.7 | 1.7 | 0.00 | 0.00 | 0.00 | 18 | 814.3 |
| 20260506214224 | 71 | 19 | 2.6 | 2.6 | 0.00 | 0.00 | 0.00 | 16 | 814.2 |
| 20260506213722 | 72 | 23 | 1.7 | 1.7 | 0.00 | 0.00 | 0.00 | 15 | 814.2 |
| 20260506213219 | 72 | 0 | 3.5 | 4.3 | 0.00 | 0.00 | 0.00 | 13 | 814.0 |
| 20260506212717 | 73 | 19 | 3.5 | 4.3 | 0.00 | 0.00 | 0.00 | 13 | 814.2 |
| 20260506212212 | 74 | 344 | 2.6 | 2.6 | 0.00 | 0.00 | 0.00 | 13 | 814.2 |
| 20260506211708 | 75 | 1 | 2.6 | 2.6 | 0.00 | 0.00 | 0.00 | 12 | 814.0 |
| 20260506211205 | 75 | 326 | 2.6 | 2.6 | 0.00 | 0.00 | 0.00 | 11 | 814.0 |
| 20260506210702 | 77 | 3 | 0.9 | 0.9 | 0.00 | 0.00 | 0.00 | 11 | 813.9 |
| 20260506210158 | 77 | 290 | 0.9 | 0.9 | 0.00 | 0.00 | 0.00 | 10 | 814.1 |
| 20260506205655 | 77 | 280 | 3.5 | 5.2 | 0.00 | 0.00 | 0.00 | 10 | 814.1 |
| 20260506205150 | 78 | 300 | 2.6 | 2.6 | 0.00 | 0.00 | 0.00 | 10 | 814.1 |
| 20260506204648 | 79 | 337 | 4.3 | 5.2 | 0.00 | 0.00 | 0.00 | 10 | 814.0 |
| 20260506204144 | 79 | 318 | 5.2 | 6.1 | 0.00 | 0.00 | 0.00 | 10 | 814.0 |
| 20260506203643 | 78 | 291 | 3.5 | 4.3 | 0.00 | 0.00 | 0.00 | 10 | 814.0 |
| 20260506203139 | 79 | 281 | 4.3 | 5.2 | 0.00 | 0.00 | 0.00 | 10 | 814.0 |
| 20260506202638 | 81 | 236 | 5.2 | 6.1 | 0.00 | 0.00 | 0.00 | 10 | 814.1 |
| 20260506202133 | 82 | 251 | 0.9 | 0.9 | 0.00 | 0.00 | 0.00 | 10 | 814.1 |
| 20260506201631 | 83 | 221 | 0.9 | 0.9 | 0.00 | 0.00 | 0.00 | 10 | 814.1 |
| 20260506201127 | 82 | 253 | 0.0 | 0.0 | 0.00 | 0.00 | 0.00 | 10 | 813.9 |
| 20260506200624 | 82 | 286 | 0.9 | 0.9 | 0.00 | 0.00 | 0.00 | 10 | 814.0 |
| 20260506200120 | 82 | 266 | 0.9 | 0.9 | 0.00 | 0.00 | 0.00 | 10 | 814.1 |
| 20260506195617 | 81 | 223 | 1.7 | 1.7 | 0.00 | 0.00 | 0.00 | 10 | 814.2 |
| 20260506195113 | 82 | 207 | 1.7 | 1.7 | 0.00 | 0.00 | 0.00 | 10 | 814.1 |
| 20260506194611 | 81 | 215 | 0.0 | 0.9 | 0.00 | 0.00 | 0.00 | 10 | 814.2 |
| 20260506194107 | 82 | 234 | 0.9 | 0.9 | 0.00 | 0.00 | 0.00 | 10 | 814.0 |
| 20260506193605 | 82 | 211 | 0.9 | 0.9 | 0.00 | 0.00 | 0.00 | 10 | 814.0 |
| 20260506193102 | 81 | 201 | 0.9 | 1.7 | 0.00 | 0.00 | 0.00 | 10 | 814.3 |
| 20260506192559 | 80 | 147 | 2.6 | 2.6 | 0.00 | 0.00 | 0.00 | 10 | 814.3 |
| 20260506192055 | 83 | 228 | 2.6 | 4.3 | 0.00 | 0.00 | 0.00 | 10 | 814.2 |
| 20260506191551 | 82 | 266 | 0.0 | 0.0 | 0.00 | 0.00 | 0.00 | 10 | 814.3 |
| 20260506191047 | 81 | 243 | 0.9 | 1.7 | 0.00 | 0.00 | 0.00 | 10 | 814.5 |
| 20260506190545 | 80 | 259 | 0.9 | 0.9 | 0.00 | 0.00 | 0.00 | 10 | 814.4 |
| 20260506190042 | 82 | 285 | 0.0 | 0.0 | 0.00 | 0.00 | 0.00 | 10 | 814.5 |
| 20260506185539 | 80 | 254 | 1.7 | 1.7 | 0.00 | 0.00 | 0.00 | 10 | 814.6 |
| 20260506185036 | 81 | 262 | 0.9 | 0.9 | 0.00 | 0.00 | 0.00 | 10 | 814.5 |
| 20260506184533 | 82 | 189 | 2.6 | 5.2 | 0.00 | 0.00 | 0.00 | 10 | 814.9 |
| 20260506184030 | 81 | 118 | 4.3 | 5.2 | 0.00 | 0.00 | 0.00 | 10 | 814.9 |
| 20260506183526 | 80 | 253 | 1.7 | 1.7 | 0.00 | 0.00 | 0.00 | 10 | 815.1 |
| 20260506183023 | 80 | 140 | 2.6 | 4.3 | 0.00 | 0.00 | 0.00 | 10 | 815.2 |
| 20260506182520 | 80 | 209 | 2.6 | 2.6 | 0.00 | 0.00 | 0.00 | 10 | 815.0 |
| 20260506182017 | 80 | 143 | 3.5 | 5.2 | 0.00 | 0.00 | 0.00 | 10 | 815.0 |
| 20260506181515 | 81 | 281 | 0.9 | 0.9 | 0.00 | 0.00 | 0.00 | 10 | 815.2 |
| 20260506181012 | 81 | 182 | 1.7 | 1.7 | 0.00 | 0.00 | 0.00 | 10 | 815.3 |
| 20260506180508 | 81 | 177 | 4.3 | 5.2 | 0.00 | 0.00 | 0.00 | 10 | 815.2 |
| 20260506180006 | 82 | 173 | 2.6 | 4.3 | 0.00 | 0.00 | 0.00 | 10 | 815.4 |
| 20260506175501 | 82 | 191 | 0.9 | 0.9 | 0.00 | 0.00 | 0.00 | 10 | 815.6 |
| 20260506174958 | 80 | 280 | 0.9 | 1.7 | 0.00 | 0.00 | 0.00 | 10 | 815.5 |
| 20260506174457 | 79 | 188 | 1.7 | 2.6 | 0.00 | 0.00 | 0.00 | 10 | 815.7 |
| 20260506173952 | 79 | 90 | 2.6 | 2.6 | 0.00 | 0.00 | 0.00 | 10 | 816.0 |
| 20260506173450 | 81 | 143 | 2.6 | 2.6 | 0.00 | 0.00 | 0.00 | 10 | 816.2 |
| 20260506172946 | 80 | 211 | 1.7 | 1.7 | 0.00 | 0.00 | 0.00 | 10 | 816.2 |
| 20260506172443 | 78 | 108 | 2.6 | 4.3 | 0.00 | 0.00 | 0.00 | 10 | 816.4 |
| 20260506171934 | 81 | 321 | 0.9 | 1.7 | 0.00 | 0.00 | 0.00 | 10 | 816.4 |
| 20260506171432 | 77 | 238 | 2.6 | 2.6 | 0.00 | 0.00 | 0.00 | 10 | 816.2 |
| 20260506170930 | 76 | 222 | 1.7 | 1.7 | 0.00 | 0.00 | 0.00 | 10 | 816.5 |
| 20260506170426 | 78 | 70 | 4.3 | 6.1 | 0.00 | 0.00 | 0.00 | 10 | 816.5 |
| 20260506165924 | 77 | 219 | 2.6 | 2.6 | 0.00 | 0.00 | 0.00 | 10 | 816.6 |
| 20260506165422 | 77 | 56 | 2.6 | 2.6 | 0.00 | 0.00 | 0.00 | 12 | 816.8 |
| 20260506164918 | 77 | 268 | 0.0 | 0.9 | 0.00 | 0.00 | 0.00 | 10 | 816.9 |
| 20260506164415 | 77 | 169 | 2.6 | 2.6 | 0.00 | 0.00 | 0.00 | 12 | 817.0 |
| 20260506163913 | 75 | 289 | 0.9 | 0.9 | 0.00 | 0.00 | 0.00 | 11 | 817.0 |
| 20260506163407 | 76 | 49 | 2.6 | 2.6 | 0.00 | 0.00 | 0.00 | 12 | 817.3 |
| 20260506162903 | 78 | 162 | 2.6 | 2.6 | 0.00 | 0.00 | 0.00 | 12 | 817.4 |
| 20260506162401 | 76 | 43 | 2.6 | 4.3 | 0.00 | 0.00 | 0.00 | 16 | 817.4 |
| 20260506161858 | 76 | 228 | 0.9 | 1.7 | 0.00 | 0.00 | 0.00 | 14 | 817.7 |
| 20260506161355 | 75 | 126 | 0.9 | 0.9 | 0.00 | 0.00 | 0.00 | 14 | 817.5 |
| 20260506160853 | 76 | 72 | 2.6 | 2.6 | 0.00 | 0.00 | 0.00 | 13 | 817.7 |
| 20260506160350 | 74 | 38 | 0.9 | 1.7 | 0.00 | 0.00 | 0.00 | 13 | 817.8 |
| 20260506155848 | 74 | 131 | 2.6 | 2.6 | 0.00 | 0.00 | 0.00 | 17 | 818.1 |
| 20260506155344 | 75 | 165 | 0.9 | 0.9 | 0.00 | 0.00 | 0.00 | 14 | 818.2 |
| 20260506153502 | 73 | 53 | 1.7 | 1.7 | 0.00 | 0.00 | 0.00 | 13 | 818.5 |
| 20260506152959 | 71 | 127 | 0.9 | 0.9 | 0.00 | 0.00 | 0.00 | 23 | 818.7 |
| 20260506152456 | 71 | 186 | 3.5 | 4.3 | 0.00 | 0.00 | 0.00 | 20 | 818.8 |
| 20260506151954 | 71 | 245 | 0.9 | 0.9 | 0.00 | 0.00 | 0.00 | 22 | 818.7 |
| 20260506151452 | 70 | 255 | 0.9 | 0.9 | 0.00 | 0.00 | 0.00 | 24 | 819.1 |
| 20260506150949 | 69 | 194 | 3.5 | 4.3 | 0.00 | 0.00 | 0.00 | 24 | 819.2 |
| 20260506150445 | 69 | 241 | 0.0 | 0.9 | 0.00 | 0.00 | 0.00 | 24 | 819.3 |
| 20260506145942 | 69 | 305 | 0.0 | 0.0 | 0.00 | 0.00 | 0.00 | 24 | 819.4 |
| 20260506145438 | 69 | 231 | 1.7 | 1.7 | 0.00 | 0.00 | 0.00 | 27 | 819.4 |
| 20260506144936 | 69 | 218 | 2.6 | 2.6 | 0.00 | 0.00 | 0.00 | 26 | 819.3 |
| 20260506144432 | 70 | 189 | 3.5 | 4.3 | 0.00 | 0.00 | 0.00 | 25 | 819.4 |
| 20260506143931 | 70 | 108 | 1.7 | 1.7 | 0.00 | 0.00 | 0.00 | 23 | 819.5 |
| 20260506143427 | 68 | 112 | 0.9 | 0.9 | 0.00 | 0.00 | 0.00 | 21 | 819.8 |
| 20260506142926 | 68 | 126 | 2.6 | 2.6 | 0.00 | 0.00 | 0.00 | 23 | 819.9 |
| 20260506142423 | 67 | 220 | 0.9 | 0.9 | 0.00 | 0.00 | 0.00 | 24 | 819.8 |
| 20260506141921 | 67 | 198 | 1.7 | 1.7 | 0.00 | 0.00 | 0.00 | 25 | 819.9 |
| 20260506141419 | 70 | 216 | 0.9 | 1.7 | 0.00 | 0.00 | 0.00 | 22 | 820.0 |
| 20260506140917 | 69 | 101 | 0.9 | 1.7 | 0.00 | 0.00 | 0.00 | 22 | 820.0 |
| 20260506140414 | 68 | 300 | 0.9 | 0.9 | 0.00 | 0.00 | 0.00 | 22 | 819.9 |
| 20260506135911 | 68 | 177 | 0.9 | 0.9 | 0.00 | 0.00 | 0.00 | 23 | 820.1 |
| 20260506135408 | 65 | 229 | 0.9 | 0.9 | 0.00 | 0.00 | 0.00 | 27 | 820.0 |
| 20260506134904 | 66 | 227 | 0.0 | 0.9 | 0.00 | 0.00 | 0.00 | 25 | 820.3 |
| 20260506134400 | 64 | 163 | 1.7 | 1.7 | 0.00 | 0.00 | 0.00 | 26 | 820.0 |
| 20260506133857 | 65 | 195 | 1.7 | 1.7 | 0.00 | 0.00 | 0.00 | 27 | 820.1 |
| 20260506133354 | 67 | 123 | 2.6 | 2.6 | 0.00 | 0.00 | 0.00 | 25 | 820.1 |
| 20260506132850 | 65 | 2 | 1.7 | 1.7 | 0.00 | 0.00 | 0.00 | 25 | 820.0 |
| 20260506132348 | 63 | 151 | 0.0 | 0.9 | 0.00 | 0.00 | 0.00 | 29 | 820.0 |
| 20260506131846 | 63 | 179 | 1.7 | 1.7 | 0.00 | 0.00 | 0.00 | 30 | 820.2 |
| 20260506131342 | 65 | 165 | 1.7 | 1.7 | 0.00 | 0.00 | 0.00 | 29 | 820.1 |
| 20260506130839 | 65 | 255 | 0.0 | 0.0 | 0.00 | 0.00 | 0.00 | 27 | 820.3 |
| 20260506130335 | 64 | 287 | 0.0 | 0.0 | 0.00 | 0.00 | 0.00 | 28 | 820.1 |
| 20260506125833 | 61 | 246 | 0.0 | 0.0 | 0.00 | 0.00 | 0.00 | 31 | 820.0 |
| 20260506125331 | 60 | 246 | 0.9 | 0.9 | 0.00 | 0.00 | 0.00 | 33 | 820.2 |
| 20260506124830 | 60 | 220 | 0.9 | 1.7 | 0.00 | 0.00 | 0.00 | 34 | 820.1 |
| 20260506124326 | 60 | 237 | 0.9 | 0.9 | 0.00 | 0.00 | 0.00 | 36 | 820.1 |
| 20260506123824 | 60 | 256 | 0.9 | 1.7 | 0.00 | 0.00 | 0.00 | 33 | 820.0 |
| 20260506123322 | 60 | 267 | 0.0 | 0.9 | 0.00 | 0.00 | 0.00 | 34 | 819.8 |
| 20260506122819 | 62 | 316 | 0.0 | 0.0 | 0.00 | 0.00 | 0.00 | 31 | 819.9 |
| 20260506122316 | 59 | 325 | 0.0 | 0.9 | 0.00 | 0.00 | 0.00 | 31 | 819.8 |
| 20260506121814 | 59 | 325 | 0.0 | 0.9 | 0.00 | 0.00 | 0.00 | 32 | 819.8 |
| 20260506121311 | 59 | 326 | 0.9 | 0.9 | 0.00 | 0.00 | 0.00 | 31 | 820.0 |
| 20260506120808 | 57 | 326 | 1.7 | 1.7 | 0.00 | 0.00 | 0.00 | 34 | 819.9 |
| 20260506120306 | 58 | 326 | 0.0 | 0.0 | 0.00 | 0.00 | 0.00 | 35 | 820.1 |
| 20260506115803 | 59 | 327 | 0.0 | 0.9 | 0.00 | 0.00 | 0.00 | 34 | 820.2 |
| 20260506115306 | 57 | 327 | 0.9 | 0.9 | 0.00 | 0.00 | 0.00 | 36 | 820.3 |
| 20260506114759 | 55 | 327 | 0.9 | 0.9 | 0.00 | 0.00 | 0.00 | 38 | 820.1 |
| 20260506114256 | 57 | 50 | 1.7 | 1.7 | 0.00 | 0.00 | 0.00 | 37 | 820.3 |
| 20260506113755 | 57 | 62 | 0.9 | 0.9 | 0.00 | 0.00 | 0.00 | 33 | 820.0 |
| 20260506113252 | 54 | 72 | 1.7 | 2.6 | 0.00 | 0.00 | 0.00 | 34 | 820.0 |
| 20260506112748 | 53 | 27 | 1.7 | 1.7 | 0.00 | 0.00 | 0.00 | 36 | 820.0 |
| 20260506112245 | 53 | 10 | 1.7 | 1.7 | 0.00 | 0.00 | 0.00 | 34 | 820.1 |
| 20260506111743 | 53 | 32 | 1.7 | 1.7 | 0.00 | 0.00 | 0.00 | 36 | 820.1 |
| 20260506111241 | 53 | 20 | 1.7 | 1.7 | 0.00 | 0.00 | 0.00 | 35 | 819.9 |
| 20260506110737 | 53 | 11 | 1.7 | 1.7 | 0.00 | 0.00 | 0.00 | 34 | 819.9 |
| 20260506110235 | 52 | 25 | 1.7 | 1.7 | 0.00 | 0.00 | 0.00 | 34 | 819.9 |
| 20260506105731 | 52 | 349 | 1.7 | 1.7 | 0.00 | 0.00 | 0.00 | 38 | 819.8 |
| 20260506105229 | 52 | 350 | 2.6 | 2.6 | 0.00 | 0.00 | 0.00 | 39 | 819.7 |
| 20260506104727 | 54 | 345 | 1.7 | 1.7 | 0.00 | 0.00 | 0.00 | 34 | 819.5 |
| 20260506104224 | 52 | 353 | 1.7 | 1.7 | 0.00 | 0.00 | 0.00 | 42 | 819.8 |
| 20260506103721 | 53 | 354 | 2.6 | 2.6 | 0.00 | 0.00 | 0.00 | 38 | 819.5 |
| 20260506103218 | 53 | 354 | 0.9 | 1.7 | 0.00 | 0.00 | 0.00 | 37 | 819.3 |
| 20260506102716 | 50 | 356 | 2.6 | 2.6 | 0.00 | 0.00 | 0.00 | 41 | 819.3 |
| 20260506102214 | 51 | 356 | 0.9 | 0.9 | 0.00 | 0.00 | 0.00 | 39 | 819.4 |
| 20260506101710 | 52 | 356 | 1.7 | 1.7 | 0.00 | 0.00 | 0.00 | 40 | 819.3 |
| 20260506101207 | 52 | 356 | 1.7 | 1.7 | 0.00 | 0.00 | 0.00 | 40 | 819.4 |
| 20260506100705 | 51 | 356 | 0.0 | 0.0 | 0.00 | 0.00 | 0.00 | 39 | 819.2 |
| 20260506100203 | 54 | 356 | 0.9 | 1.7 | 0.00 | 0.00 | 0.00 | 39 | 819.1 |
| 20260506095701 | 53 | 356 | 0.9 | 0.9 | 0.00 | 0.00 | 0.00 | 36 | 818.9 |
| 20260506095157 | 54 | 356 | 0.9 | 0.9 | 0.00 | 0.00 | 0.00 | 35 | 819.0 |
| 20260506094655 | 54 | 356 | 0.9 | 0.9 | 0.00 | 0.00 | 0.00 | 36 | 818.9 |
| 20260506094152 | 54 | 355 | 0.0 | 0.0 | 0.00 | 0.00 | 0.00 | 35 | 818.8 |
| 20260506093651 | 53 | 355 | 0.9 | 0.9 | 0.00 | 0.00 | 0.00 | 36 | 818.9 |
| 20260506093148 | 52 | 356 | 0.9 | 0.9 | 0.00 | 0.00 | 0.00 | 40 | 818.8 |
| 20260506092645 | 52 | 356 | 1.7 | 1.7 | 0.00 | 0.00 | 0.00 | 41 | 818.8 |
| 20260506092142 | 53 | 356 | 0.9 | 0.9 | 0.00 | 0.00 | 0.00 | 40 | 818.7 |
| 20260506091640 | 53 | 356 | 1.7 | 1.7 | 0.00 | 0.00 | 0.00 | 38 | 818.8 |
| 20260506091137 | 53 | 356 | 1.7 | 1.7 | 0.00 | 0.00 | 0.00 | 38 | 818.8 |
| 20260506090636 | 53 | 356 | 1.7 | 1.7 | 0.00 | 0.00 | 0.00 | 37 | 818.6 |
| 20260506090131 | 53 | 357 | 1.7 | 1.7 | 0.00 | 0.00 | 0.00 | 39 | 818.6 |
| 20260506085629 | 53 | 358 | 1.7 | 1.7 | 0.00 | 0.00 | 0.00 | 39 | 818.7 |
| 20260506085125 | 53 | 358 | 1.7 | 1.7 | 0.00 | 0.00 | 0.00 | 40 | 818.5 |
| 20260506084621 | 53 | 358 | 1.7 | 1.7 | 0.00 | 0.00 | 0.00 | 38 | 818.5 |
| 20260506084118 | 53 | 358 | 1.7 | 1.7 | 0.00 | 0.00 | 0.00 | 38 | 818.6 |
| 20260506083615 | 52 | 2 | 0.9 | 0.9 | 0.00 | 0.00 | 0.00 | 41 | 818.5 |
| 20260506083113 | 53 | 3 | 0.9 | 1.7 | 0.00 | 0.00 | 0.00 | 39 | 818.5 |
| 20260506082609 | 54 | 3 | 0.9 | 1.7 | 0.00 | 0.00 | 0.00 | 37 | 818.6 |
| 20260506082105 | 54 | 358 | 1.7 | 1.7 | 0.00 | 0.00 | 0.00 | 37 | 818.6 |
| 20260506081603 | 56 | 23 | 1.7 | 1.7 | 0.00 | 0.00 | 0.00 | 34 | 818.5 |
| 20260506081101 | 55 | 30 | 0.9 | 1.7 | 0.00 | 0.00 | 0.00 | 32 | 818.3 |
| 20260506080558 | 55 | 5 | 0.9 | 1.7 | 0.00 | 0.00 | 0.00 | 34 | 818.5 |